Change the Weather History Date:

Saturday, January 25, 2014

  Actual Average Record
Temperature  
Mean Temperature 54 °F -  
Max Temperature 59 °F - - ()
Min Temperature 50 °F - - ()
Degree Days  
Heating Degree Days 10    
Growing Degree Days 4 (Base 50)    
Moisture  
Dew Point 48 °F    
Average Humidity 81    
Maximum Humidity 94    
Minimum Humidity 67    
Precipitation  
Precipitation 0.00 in - - ()
Sea Level Pressure  
Sea Level Pressure 30.20 in    
Wind  
Wind Speed 16 mph (NW)    
Max Wind Speed 22 mph    
Max Gust Speed 24 mph    
Visibility 10 miles    
Events      
T = Trace of Precipitation, MM = Missing Value Source: NWS Daily Summary

Daily Weather History Graph

Daily Weather History Graph

Search for Another Location

Airport or City:

Trip Planner

Search our weather history database for the weather conditions in past years. The results will help you decide how hot, cold, wet, or windy it might be!

Date:

Astronomy

Jan. 25, 2014 Rise Set
Actual Time 6:50 AM CST 5:32 PM CST
Civil Twilight 6:25 AM CST 5:57 PM CST
Nautical Twilight 5:56 AM CST 6:26 PM CST
Astronomical Twilight 5:28 AM CST 6:54 PM CST
Moon 1:24 AM CST (1/25) 12:32 PM CST (1/25)
Length of Visible Light 11h 32m
Length of Day
10h 42m
Waning Crescent, 34% of the Moon is Illuminated
Jan 25
Waning Crescent
Jan 30
New
Feb 6
First Quarter
Feb 14
Full
Feb 22
Last Quarter

Hourly Weather History & Observations

Time (CST) Temp. Dew Point Humidity Pressure Visibility Wind Dir Wind Speed Gust Speed Precip Events Conditions
12:15 AM 50.0 °F 48.2 °F 94% 30.33 in 10.0 mi North - - N/A   Overcast
12:35 AM 50.0 °F 48.2 °F 94% 30.32 in 10.0 mi NNE 17.3 mph - N/A   Overcast
12:55 AM 51.8 °F 48.2 °F 88% 30.31 in 10.0 mi NE 13.8 mph - N/A   Overcast
1:15 AM 51.8 °F 48.2 °F 88% 30.30 in 10.0 mi NE 12.7 mph - N/A   Overcast
1:35 AM 51.8 °F 48.2 °F 88% 30.29 in 10.0 mi NE 12.7 mph - N/A   Overcast
1:55 AM 51.8 °F 48.2 °F 88% 30.28 in 10.0 mi NE 12.7 mph - N/A   Overcast
2:15 AM 51.8 °F 48.2 °F 88% 30.28 in 10.0 mi NNE 17.3 mph - N/A   Overcast
2:35 AM 51.8 °F 48.2 °F 88% 30.27 in 10.0 mi North - - N/A   Overcast
2:55 AM 51.8 °F 50.0 °F 94% 30.26 in 10.0 mi NNE 15.0 mph - N/A   Overcast
3:15 AM 51.8 °F 48.2 °F 88% 30.26 in 10.0 mi NNE 15.0 mph - N/A   Overcast
3:35 AM 51.8 °F 50.0 °F 94% 30.26 in 10.0 mi North - - N/A   Overcast
3:55 AM 51.8 °F 50.0 °F 94% 30.26 in 10.0 mi North 17.3 mph - N/A   Overcast
4:15 AM 51.8 °F 48.2 °F 88% 30.25 in 10.0 mi NNE 13.8 mph 19.6 mph N/A   Overcast
4:35 AM 51.8 °F 48.2 °F 88% 30.25 in 10.0 mi North 16.1 mph - N/A   Overcast
4:55 AM 51.8 °F 48.2 °F 88% 30.25 in 10.0 mi North 17.3 mph - N/A   Overcast
5:15 AM 51.8 °F 48.2 °F 88% 30.25 in 10.0 mi North 16.1 mph - N/A   Overcast
5:35 AM 51.8 °F 48.2 °F 88% 30.24 in 10.0 mi North 12.7 mph 19.6 mph N/A   Overcast
5:55 AM 51.8 °F 48.2 °F 88% 30.25 in 10.0 mi North 13.8 mph - N/A   Overcast
6:15 AM 51.8 °F 48.2 °F 88% 30.25 in 10.0 mi NNW 15.0 mph - N/A   Overcast
6:35 AM 51.8 °F 48.2 °F 88% 30.25 in 10.0 mi NNW 16.1 mph - N/A   Overcast
6:55 AM 51.8 °F 48.2 °F 88% 30.25 in 10.0 mi NNW 17.3 mph - N/A   Overcast
7:15 AM 51.8 °F 48.2 °F 88% 30.26 in 10.0 mi NNW 15.0 mph - N/A   Overcast
7:35 AM 53.6 °F 50.0 °F 88% 30.25 in 10.0 mi North 15.0 mph - N/A   Unknown
7:55 AM 53.6 °F 48.2 °F 82% 30.24 in 10.0 mi NNW 11.5 mph - N/A   Unknown
8:15 AM 53.6 °F 50.0 °F 88% 30.25 in 10.0 mi NNW 11.5 mph 17.3 mph N/A   Overcast
8:35 AM 53.6 °F 50.0 °F 88% 30.25 in 10.0 mi NNW 13.8 mph - N/A   Overcast
8:55 AM 53.6 °F 50.0 °F 88% 30.25 in 10.0 mi NNW 17.3 mph - N/A   Overcast
9:15 AM 53.6 °F 48.2 °F 82% 30.26 in 10.0 mi NNW 17.3 mph - N/A   Overcast
9:35 AM 51.8 °F 48.2 °F 88% 30.26 in 10.0 mi NNW 19.6 mph - N/A   Overcast
9:55 AM 51.8 °F 46.4 °F 82% 30.26 in 10.0 mi NNW 19.6 mph - N/A   Overcast
10:15 AM 51.8 °F 46.4 °F 82% 30.26 in 10.0 mi NNW 18.4 mph - N/A   Overcast
10:35 AM 51.8 °F 44.6 °F 76% 30.26 in 10.0 mi NNW 16.1 mph - N/A   Scattered Clouds
10:55 AM 51.8 °F 44.6 °F 76% 30.25 in 10.0 mi NNW 12.7 mph - N/A   Clear
11:15 AM 51.8 °F 44.6 °F 76% 30.24 in 10.0 mi NW 11.5 mph - N/A   Clear
11:35 AM 51.8 °F 44.6 °F 76% 30.23 in 10.0 mi NW 12.7 mph - N/A   Clear
11:55 AM 51.8 °F 46.4 °F 82% 30.21 in 10.0 mi NW 15.0 mph - N/A   Clear
12:15 PM 51.8 °F 46.4 °F 82% 30.20 in 10.0 mi NW 16.1 mph - N/A   Partly Cloudy
12:35 PM 51.8 °F 46.4 °F 82% 30.19 in 10.0 mi NW 17.3 mph - N/A   Mostly Cloudy
12:55 PM 51.8 °F 46.4 °F 82% 30.18 in 10.0 mi WNW 13.8 mph - N/A   Mostly Cloudy
1:15 PM 51.8 °F 46.4 °F 82% 30.16 in 10.0 mi WNW 16.1 mph - N/A   Mostly Cloudy
1:35 PM 51.8 °F 46.4 °F 82% 30.15 in 10.0 mi WNW 16.1 mph - N/A   Mostly Cloudy
1:55 PM 51.8 °F 46.4 °F 82% 30.15 in 10.0 mi WNW 16.1 mph - N/A   Mostly Cloudy
2:15 PM 51.8 °F 46.4 °F 82% 30.14 in 10.0 mi WNW 18.4 mph - N/A   Mostly Cloudy
2:35 PM 51.8 °F 46.4 °F 82% 30.14 in 10.0 mi West 18.4 mph 24.2 mph N/A   Overcast
2:55 PM 51.8 °F 46.4 °F 82% 30.13 in 10.0 mi WNW 16.1 mph 23.0 mph N/A   Overcast
3:15 PM 51.8 °F 46.4 °F 82% 30.13 in - West 17.3 mph - N/A   Overcast
3:35 PM 51.8 °F 46.4 °F 82% 30.12 in - West 15.0 mph 21.9 mph N/A   Overcast
3:55 PM 53.6 °F 46.4 °F 77% 30.12 in 10.0 mi WNW 17.3 mph - N/A   Overcast
4:15 PM 53.6 °F 46.4 °F 77% 30.12 in 10.0 mi WNW 17.3 mph - N/A   Overcast
4:35 PM 53.6 °F 46.4 °F 77% 30.12 in 10.0 mi West 19.6 mph - N/A   Mostly Cloudy
4:55 PM 53.6 °F 46.4 °F 77% 30.12 in 10.0 mi West 15.0 mph 21.9 mph N/A   Mostly Cloudy
5:15 PM 53.6 °F 48.2 °F 82% 30.12 in 10.0 mi West 17.3 mph - N/A   Overcast
5:35 PM 53.6 °F 46.4 °F 77% 30.13 in 10.0 mi West 18.4 mph - N/A   Overcast
5:55 PM 53.6 °F 46.4 °F 77% 30.13 in 10.0 mi West 21.9 mph - N/A   Mostly Cloudy
6:15 PM 53.6 °F 46.4 °F 77% 30.13 in 10.0 mi West 19.6 mph - N/A   Mostly Cloudy
6:35 PM 55.4 °F 48.2 °F 77% 30.14 in 10.0 mi West 18.4 mph - N/A   Mostly Cloudy
6:55 PM 55.4 °F 48.2 °F 77% 30.14 in 10.0 mi West 18.4 mph 24.2 mph N/A   Overcast
7:15 PM 55.4 °F 48.2 °F 77% 30.14 in 10.0 mi West 19.6 mph - N/A   Overcast
7:35 PM 57.2 °F 46.4 °F 67% 30.14 in 10.0 mi West 18.4 mph - N/A   Mostly Cloudy
7:55 PM 55.4 °F 46.4 °F 72% 30.15 in 10.0 mi WNW 17.3 mph - N/A   Mostly Cloudy
8:15 PM 57.2 °F 46.4 °F 67% 30.15 in 10.0 mi West 16.1 mph 23.0 mph N/A   Mostly Cloudy
8:35 PM 57.2 °F 46.4 °F 67% 30.15 in 10.0 mi West 16.1 mph 23.0 mph N/A   Mostly Cloudy
8:55 PM 57.2 °F 46.4 °F 67% 30.14 in 10.0 mi West 16.1 mph 21.9 mph N/A   Overcast
9:15 PM 57.2 °F 48.2 °F 72% 30.14 in 10.0 mi West 18.4 mph - N/A   Overcast
9:35 PM 57.2 °F 48.2 °F 72% 30.14 in 10.0 mi North - - N/A   Overcast
9:55 PM 57.2 °F 48.2 °F 72% 30.14 in 10.0 mi West 12.7 mph - N/A   Mostly Cloudy
10:15 PM 57.2 °F 48.2 °F 72% 30.14 in 10.0 mi West 12.7 mph 19.6 mph N/A   Mostly Cloudy
10:35 PM 57.2 °F 48.2 °F 72% 30.13 in 10.0 mi West 10.4 mph 20.7 mph N/A   Mostly Cloudy
10:55 PM 59.0 °F 48.2 °F 67% 30.13 in 10.0 mi West 13.8 mph - N/A   Scattered Clouds
11:15 PM 59.0 °F 48.2 °F 67% 30.12 in 10.0 mi West 13.8 mph 19.6 mph N/A   Scattered Clouds
11:35 PM 59.0 °F 50.0 °F 72% 30.11 in 10.0 mi West 12.7 mph - N/A   Mostly Cloudy
11:55 PM 59.0 °F 48.2 °F 67% 30.11 in 10.0 mi West 13.8 mph - N/A   Mostly Cloudy